Weather History for CYUS - March, 2013

Change the Weather History Date:

Wednesday, March 20, 2013

  Actual Average Record
Temperature  
Mean Temperature -22 °F -  
Max Temperature -13 °F - - ()
Min Temperature -30 °F - - ()
Degree Days  
Heating Degree Days 86    
Moisture  
Dew Point -    
Average Humidity    
Maximum Humidity    
Minimum Humidity    
Precipitation  
Precipitation 0.00 in - - ()
Sea Level Pressure  
Sea Level Pressure 30.72 in    
Wind  
Wind Speed 9 mph ()    
Max Wind Speed 16 mph    
Max Gust Speed -    
Visibility 8.9 miles    
Events      
T = Trace of Precipitation, MM = Missing Value Source: Averaged Metar Reports

Daily Weather History Graph

Daily Weather History Graph

Search for Another Location

Airport or City:

Trip Planner

Search our weather history database for the weather conditions in past years. The results will help you decide how hot, cold, wet, or windy it might be!

Date:

Astronomy

Mar. 20, 2013 Rise Set
Actual Time 7:11 AM CDT 7:32 PM CDT
Civil Twilight 6:13 AM CDT 8:30 PM CDT
Nautical Twilight 5:00 AM CDT 9:44 PM CDT
Astronomical Twilight 3:26 AM CDT 11:21 PM CDT
Moon 9:52 AM CDT (3/20) 6:09 AM CDT (3/20)
Length of Visible Light 14h 17m
Length of Day
12h 20m
First Quarter, 59% of the Moon is Illuminated
Mar 20
First Quarter
Mar 27
Full
Apr 2
Last Quarter
Apr 10
New
Apr 18
First Quarter

Hourly Weather History & Observations

Time (CDT) Temp. Windchill Dew Point Humidity Pressure Visibility Wind Dir Wind Speed Gust Speed Precip Events Conditions
12:00 AM -20.2 °F -37.3 °F - N/A% 30.59 in 9.0 mi SE 6.9 mph - N/A   Unknown
1:00 AM -19 °F - - % 30.60 in 9 mi SE 6.9 mph - -  
1:00 AM -18.4 °F -35.1 °F - N/A% 30.60 in 9.0 mi SE 6.9 mph - N/A   Unknown
2:00 AM -16.6 °F -35.7 °F - N/A% 30.60 in 9.0 mi SSE 9.2 mph - N/A   Unknown
3:00 AM -16.6 °F -34.4 °F - N/A% 30.61 in 9.0 mi SSE 8.1 mph - N/A   Unknown
4:00 AM -18 °F - - % 30.62 in 9 mi SSE 6.9 mph - -  
4:00 AM -18.4 °F -36.6 °F - N/A% 30.62 in 9.0 mi SSE 8.1 mph - N/A   Unknown
5:00 AM -18.4 °F -37.9 °F - N/A% 30.63 in 9.0 mi South 9.2 mph - N/A   Unknown
6:00 AM -16.6 °F -36.8 °F - N/A% 30.63 in 5.0 mi South 10.4 mph - N/A   Unknown
7:00 AM -15 °F - - % 30.64 in 9 mi SSE 11.5 mph - -  
7:00 AM -14.8 °F -35.6 °F - N/A% 30.64 in 9.0 mi SSE 11.5 mph - N/A   Unknown
8:00 AM -14.8 °F -37.5 °F - N/A% 30.65 in 9.0 mi SSE 13.8 mph - N/A   Unknown
9:00 AM -13.0 °F -34.3 °F - N/A% 30.67 in 9.0 mi South 12.7 mph - N/A   Unknown
10:00 AM -17 °F - - % 30.68 in 9 mi SSW 12.7 mph - -  
10:00 AM -16.6 °F -38.9 °F - N/A% 30.68 in 9.0 mi SSW 12.7 mph - N/A   Unknown
11:00 AM -18.4 °F -42.1 °F - N/A% 30.70 in 9.0 mi SSW 13.8 mph - N/A   Unknown
12:00 PM -18.4 °F -42.1 °F - N/A% 30.71 in 9.0 mi SSW 13.8 mph - N/A   Unknown
1:00 PM -19 °F - - % 30.73 in 9 mi South 12.7 mph - -  
1:00 PM -20.2 °F -43.4 °F - N/A% 30.73 in 9.0 mi South 12.7 mph - N/A   Unknown
2:00 PM -18.4 °F -42.9 °F - N/A% 30.75 in 9.0 mi SSW 15.0 mph - N/A   Unknown
3:00 PM -18.4 °F -43.7 °F - N/A% 30.77 in 9.0 mi SSW 16.1 mph - N/A   Unknown
4:00 PM -19 °F - - % 30.79 in 9 mi South 15.0 mph - -  
4:00 PM -20.2 °F -45.2 °F - N/A% 30.79 in 9.0 mi South 15.0 mph - N/A   Unknown
5:00 PM -20.2 °F -41.3 °F - N/A% 30.80 in 9.0 mi SSE 10.4 mph - N/A   Unknown
6:00 PM -22.0 °F -44.7 °F - N/A% 30.83 in 9.0 mi SSE 11.5 mph - N/A   Unknown
7:00 PM -25 °F - - % 30.84 in 9 mi SSE 13.8 mph - -  
7:00 PM -23.8 °F -48.9 °F - N/A% 30.84 in 9.0 mi South 13.8 mph - N/A   Unknown
8:00 PM -25.6 °F -49.2 °F - N/A% 30.85 in 9.0 mi SSE 11.5 mph - N/A   Unknown
9:00 PM -29.2 °F -49.7 °F - N/A% 30.87 in 9.0 mi SE 8.1 mph - N/A   Unknown
10:00 PM -30 °F - - % 30.87 in 9 mi SE 10.4 mph - -  
10:00 PM -29.2 °F -53.7 °F - N/A% 30.87 in 9.0 mi SE 11.5 mph - N/A   Unknown
11:00 PM -29.2 °F -48.1 °F - N/A% 30.89 in 9.0 mi SSE 6.9 mph - N/A   Unknown